Location: Ferma
(41.9500°N, 44.5167°E)
Time: 04:53:32
(UTC+00:00)

NOSS 2-3 (D) - Pass Details

Date: 02 June 2022
Orbit: 536 x 1674 km, 63.3° (Epoch: 02 June)

Event Time Altitude Azimuth Distance (km) Brightness Sun altitude
Rises 19:07:44 0° 322° (NW) 3,538 8.9 -20.7°
Reaches altitude 10° 19:09:58 10° 321° (NW) 2,735 8.0 -20.9°
Maximum altitude 19:16:32 75° 238° (WSW) 1,237 4.9 -21.5°
Enters shadow 19:20:20 35° 161° (SSE) 1,979 5.5 -21.8°
